When you browse on this site, cookies collect data to enhance your experience and personalize the content and advertising you see.
Visit our Privacy Policy to learn more. By continuing to use the site, you agree to this use of cookies and data.

Previsão horária em Abdulkarimovo

Hoje, 28 Setembro, Segunda-feira

Tempo Temperatura Precipitação Vento Pressão Humidade
00:00 +10°C° 0 mm 1 m/s 734 mmHg 71%
01:00 +9°C° 0 mm 1 m/s 734 mmHg 73%
02:00 +9°C° 0 mm 1 m/s 734 mmHg 75%
03:00 +9°C° 0 mm 1 m/s 734 mmHg 76%
04:00 +9°C° 0 mm 1 m/s 734 mmHg 79%
05:00 +9°C° 0 mm 1 m/s 734 mmHg 79%
06:00 +9°C° 0 mm 1 m/s 734 mmHg 79%
07:00 +9°C° 0 mm 1 m/s 734 mmHg 79%
08:00 +11°C° 0 mm 1 m/s 734 mmHg 72%
09:00 +13°C° 0 mm 1 m/s 734 mmHg 64%
10:00 +15°C° 0 mm 2 m/s 735 mmHg 56%
11:00 +16°C° 0 mm 2 m/s 735 mmHg 52%
12:00 +17°C° 0 mm 2 m/s 734 mmHg 49%
13:00 +18°C° 0 mm 1 m/s 734 mmHg 46%
14:00 +17°C° 0 mm 2 m/s 734 mmHg 46%
15:00 +17°C° 0 mm 2 m/s 734 mmHg 46%
16:00 +18°C° 0 mm 2 m/s 734 mmHg 47%
17:00 +16°C° 0 mm 2 m/s 734 mmHg 54%
18:00 +14°C° 0 mm 2 m/s 734 mmHg 61%
19:00 +12°C° 0 mm 2 m/s 734 mmHg 68%
20:00 +12°C° 0 mm 2 m/s 734 mmHg 71%
21:00 +10°C° 0 mm 2 m/s 734 mmHg 74%
22:00 +9°C° 0 mm 2 m/s 734 mmHg 76%
23:00 +9°C° 0 mm 2 m/s 734 mmHg 77%

Amanhã, 29 Setembro, Terça-feira

Tempo Temperatura Precipitação Vento Pressão Humidade
00:00 +9°C° 0 mm 2 m/s 734 mmHg 77%
01:00 +8°C° 0 mm 2 m/s 734 mmHg 78%
02:00 +8°C° 0 mm 2 m/s 734 mmHg 81%
03:00 +8°C° 0 mm 2 m/s 734 mmHg 84%
04:00 +7°C° 0 mm 2 m/s 735 mmHg 87%
05:00 +7°C° 0 mm 2 m/s 735 mmHg 87%
06:00 +7°C° 0 mm 2 m/s 735 mmHg 88%
07:00 +7°C° 0 mm 2 m/s 735 mmHg 89%
08:00 +9°C° 0 mm 2 m/s 735 mmHg 81%
09:00 +11°C° 0 mm 3 m/s 735 mmHg 73%
10:00 +13°C° 0 mm 3 m/s 736 mmHg 65%
11:00 +14°C° 0 mm 3 m/s 735 mmHg 61%
12:00 +16°C° 0 mm 3 m/s 735 mmHg 57%
13:00 +15°C° 0 mm 4 m/s 735 mmHg 53%
14:00 +16°C° 0 mm 3 m/s 735 mmHg 53%
15:00 +16°C° 0 mm 3 m/s 735 mmHg 54%
16:00 +16°C° 0 mm 3 m/s 735 mmHg 54%
17:00 +14°C° 0 mm 2 m/s 735 mmHg 60%
18:00 +13°C° 0 mm 2 m/s 734 mmHg 67%
19:00 +10°C° 0 mm 2 m/s 734 mmHg 73%
20:00 +10°C° 0 mm 2 m/s 734 mmHg 75%
21:00 +9°C° 0 mm 2 m/s 734 mmHg 77%
22:00 +9°C° 0 mm 2 m/s 735 mmHg 79%
23:00 +10°C° 0 mm 1 m/s 734 mmHg 81%

Depois de amanhã, 30 Setembro, Quarta-feira

Tempo Temperatura Precipitação Vento Pressão Humidade
00:00 +9°C° 0 mm 1 m/s 734 mmHg 83%
01:00 +9°C° 0 mm 1 m/s 734 mmHg 85%
02:00 +9°C° 0 mm 1 m/s 734 mmHg 86%
03:00 +8°C° 0 mm 1 m/s 734 mmHg 87%
04:00 +8°C° 0 mm 1 m/s 735 mmHg 88%
05:00 +8°C° 0 mm 1 m/s 734 mmHg 88%
06:00 +8°C° 0 mm 1 m/s 734 mmHg 88%
07:00 +9°C° 0 mm 1 m/s 734 mmHg 88%
08:00 +10°C° 0 mm 1 m/s 734 mmHg 80%
09:00 +12°C° 0 mm 1 m/s 735 mmHg 73%
10:00 +14°C° 0 mm 2 m/s 735 mmHg 66%
11:00 +15°C° 0 mm 2 m/s 734 mmHg 63%
12:00 +16°C° 0 mm 2 m/s 734 mmHg 61%
13:00 +17°C° 0 mm 2 m/s 734 mmHg 58%
14:00 +17°C° 0 mm 2 m/s 734 mmHg 60%
15:00 +16°C° 0 mm 2 m/s 734 mmHg 62%
16:00 +16°C° 0 mm 2 m/s 734 mmHg 64%
17:00 +15°C° 0 mm 2 m/s 733 mmHg 71%
18:00 +13°C° 0 mm 2 m/s 733 mmHg 78%
19:00 +12°C° 0 mm 1 m/s 733 mmHg 86%
20:00 +11°C° 0 mm 1 m/s 733 mmHg 87%
21:00 +10°C° 0 mm 1 m/s 733 mmHg 89%
22:00 +10°C° 0 mm 1 m/s 733 mmHg 91%
23:00 +9°C° 0 mm 1 m/s 733 mmHg 92%

1 Outubro, Quinta-feira

Tempo Temperatura Precipitação Vento Pressão Humidade
00:00 +9°C° 0 mm 1 m/s 733 mmHg 92%
01:00 +9°C° 0 mm 1 m/s 733 mmHg 93%
02:00 +8°C° 0 mm 1 m/s 734 mmHg 93%
03:00 +8°C° 0 mm 1 m/s 734 mmHg 93%
04:00 +8°C° 0 mm 1 m/s 734 mmHg 93%
05:00 +8°C° 0 mm 1 m/s 734 mmHg 94%
06:00 +8°C° 0 mm 1 m/s 734 mmHg 94%
07:00 +7°C° 0 mm 2 m/s 734 mmHg 94%
08:00 +9°C° 0 mm 2 m/s 734 mmHg 85%
09:00 +12°C° 0 mm 2 m/s 734 mmHg 76%
10:00 +13°C° 0 mm 3 m/s 734 mmHg 67%
11:00 +14°C° 0 mm 3 m/s 734 mmHg 63%
12:00 +14°C° 0 mm 3 m/s 734 mmHg 59%
13:00 +16°C° 0 mm 3 m/s 733 mmHg 55%
14:00 +16°C° 0 mm 3 m/s 733 mmHg 55%
15:00 +16°C° 0 mm 3 m/s 733 mmHg 55%
16:00 +16°C° 0 mm 3 m/s 733 mmHg 56%
17:00 +14°C° 0 mm 2 m/s 733 mmHg 62%
18:00 +13°C° 0 mm 2 m/s 733 mmHg 69%
19:00 +10°C° 0 mm 2 m/s 733 mmHg 75%
20:00 +10°C° 0 mm 2 m/s 733 mmHg 78%
21:00 +10°C° 0 mm 1 m/s 733 mmHg 81%
22:00 +10°C° 0 mm 1 m/s 733 mmHg 83%
23:00 +9°C° 0 mm 1 m/s 733 mmHg 85%

2 Outubro, Sexta-feira

Tempo Temperatura Precipitação Vento Pressão Humidade
00:00 +9°C° 0 mm 1 m/s 733 mmHg 87%
01:00 +9°C° 0 mm 1 m/s 733 mmHg 88%
02:00 +8°C° 0 mm 1 m/s 733 mmHg 89%
03:00 +8°C° 0 mm 1 m/s 733 mmHg 90%
04:00 +8°C° 0 mm 1 m/s 733 mmHg 90%
05:00 +8°C° 0 mm 1 m/s 733 mmHg 91%
06:00 +8°C° 0 mm 1 m/s 733 mmHg 91%
07:00 +8°C° 0 mm 1 m/s 733 mmHg 91%
08:00 +10°C° 0 mm 1 m/s 733 mmHg 83%
09:00 +12°C° 0 mm 1 m/s 733 mmHg 74%
10:00 +14°C° 0 mm 1 m/s 733 mmHg 65%
11:00 +15°C° 0 mm 1 m/s 733 mmHg 60%
12:00 +16°C° 0 mm 1 m/s 733 mmHg 55%
13:00 +18°C° 0 mm 1 m/s 733 mmHg 51%
14:00 +18°C° 0 mm 1 m/s 732 mmHg 49%
15:00 +18°C° 0 mm 1 m/s 732 mmHg 48%
16:00 +16°C° 0 mm 0 m/s 732 mmHg 47%
17:00 +14°C° 0 mm 0 m/s 732 mmHg 54%
18:00 +12°C° 0 mm 0 m/s 731 mmHg 60%
19:00 +11°C° 0 mm 0 m/s 731 mmHg 67%
20:00 +10°C° 0 mm 0 m/s 731 mmHg 69%
21:00 +11°C° 0 mm 1 m/s 731 mmHg 70%
22:00 +10°C° 0 mm 1 m/s 731 mmHg 72%
23:00 +10°C° 0 mm 1 m/s 731 mmHg 74%

3 Outubro, Sábado

Tempo Temperatura Precipitação Vento Pressão Humidade
00:00 +9°C° 0 mm 1 m/s 731 mmHg 75%
01:00 +9°C° 0 mm 1 m/s 731 mmHg 77%
02:00 +9°C° 0 mm 1 m/s 731 mmHg 78%
03:00 +9°C° 0 mm 1 m/s 731 mmHg 80%
04:00 +8°C° 0 mm 1 m/s 731 mmHg 82%
05:00 +8°C° 0 mm 1 m/s 731 mmHg 82%
06:00 +9°C° 0 mm 1 m/s 731 mmHg 81%
07:00 +9°C° 0 mm 1 m/s 731 mmHg 80%
08:00 +11°C° 0 mm 1 m/s 731 mmHg 71%
09:00 +13°C° 0 mm 1 m/s 731 mmHg 62%
10:00 +15°C° 0 mm 1 m/s 731 mmHg 52%
11:00 +16°C° 0 mm 2 m/s 731 mmHg 47%
12:00 +17°C° 0 mm 2 m/s 731 mmHg 43%
13:00 +19°C° 0 mm 2 m/s 731 mmHg 38%
14:00 +18°C° 0 mm 3 m/s 730 mmHg 40%
15:00 +18°C° 0 mm 3 m/s 730 mmHg 42%
16:00 +17°C° 0 mm 3 m/s 730 mmHg 45%
17:00 +14°C° 0 mm 3 m/s 730 mmHg 53%
18:00 +13°C° 0 mm 2 m/s 730 mmHg 61%
19:00 +10°C° 0 mm 2 m/s 730 mmHg 69%
20:00 +10°C° 0 mm 2 m/s 730 mmHg 72%
21:00 +9°C° 0 mm 2 m/s 730 mmHg 76%
22:00 +9°C° 0 mm 2 m/s 730 mmHg 79%
23:00 +8°C° 0 mm 2 m/s 730 mmHg 81%
Mostrar mais